Change the Weather History Date:

Saturday, March 2, 2013

  Actual Average Record
Temperature  
Mean Temperature 48 °F 45 °F  
Max Temperature 67 °F 58 °F 85 °F (1967)
Min Temperature 29 °F 33 °F 7 °F (2002)
Degree Days  
Heating Degree Days 17 20  
Month to date heating degree days 42 40  
Since 1 July heating degree days 2764 3033  
Cooling Degree Days 0 0  
Month to date cooling degree days 0 0  
Year to date cooling degree days 0 0  
Moisture  
Dew Point 28 °F    
Average Humidity 54    
Maximum Humidity 85    
Minimum Humidity 22    
Precipitation  
Precipitation 0.00 in 0.04 in 0.71 in (1957)
Month to date precipitation 0.00 0.08  
Year to date precipitation 3.05 1.29  
Snow  
Snow 0.00 in - 8.00 in (1969)
Month to date snowfall 0.0  
Since 1 July snowfall 27.2  
Snow Depth 0.00 in    
Sea Level Pressure  
Sea Level Pressure 30.26 in    
Wind  
Wind Speed 7 mph (WSW)    
Max Wind Speed 15 mph    
Max Gust Speed 21 mph    
Visibility 10 miles    
Events      
T = Trace of Precipitation, MM = Missing Value Source: NWS Daily Summary

Daily Weather History Graph

Daily Weather History Graph

Search for Another Location

Airport or City:

Trip Planner

Search our weather history database for the weather conditions in past years. The results will help you decide how hot, cold, wet, or windy it might be!

Date:

Astronomy

Mar. 02, 2013 Rise Set
Actual Time 7:13 AM CST 6:41 PM CST
Civil Twilight 6:48 AM CST 7:07 PM CST
Nautical Twilight 6:18 AM CST 7:37 PM CST
Astronomical Twilight 5:49 AM CST 8:06 PM CST
Moon No Moon Rise 9:55 AM CST (3/2)
Length of Visible Light 12h 19m
Length of Day
11h 28m
Waning Gibbous, 74% of the Moon is Illuminated
Mar 2
Waning Gibbous
Mar 4
Last Quarter
Mar 11
New
Mar 19
First Quarter
Mar 27
Full

Hourly Weather History & Observations

Time (CST) Temp. Windchill Dew Point Humidity Pressure Visibility Wind Dir Wind Speed Gust Speed Precip Events Conditions
12:51 AM 30.9 °F 26.2 °F 27.0 °F 85% 30.38 in 10.0 mi WSW 4.6 mph - N/A   Clear
1:51 AM 32.0 °F 28.7 °F 27.0 °F 82% 30.38 in 10.0 mi WSW 3.5 mph - N/A   Clear
2:51 AM 30.9 °F 27.5 °F 26.1 °F 82% 30.37 in 10.0 mi SW 3.5 mph - N/A   Clear
3:51 AM 28.9 °F 22.8 °F 25.0 °F 85% 30.36 in 10.0 mi West 5.8 mph - N/A   Mostly Cloudy
4:51 AM 33.1 °F 26.9 °F 28.0 °F 82% 30.34 in 10.0 mi WSW 6.9 mph - N/A   Mostly Cloudy
5:51 AM 30.9 °F 22.8 °F 27.0 °F 85% 30.33 in 10.0 mi WSW 9.2 mph - N/A   Clear
6:51 AM 33.1 °F 24.9 °F 27.0 °F 78% 30.33 in 10.0 mi WSW 10.4 mph - N/A   Clear
7:51 AM 33.1 °F 25.5 °F 27.0 °F 78% 30.34 in 10.0 mi WSW 9.2 mph - N/A   Clear
8:51 AM 39.0 °F 32.3 °F 28.0 °F 65% 30.35 in 10.0 mi West 10.4 mph - N/A   Clear
9:51 AM 44.1 °F 39.5 °F 28.9 °F 55% 30.35 in 10.0 mi West 8.1 mph - N/A   Clear
10:51 AM 53.1 °F - 28.0 °F 38% 30.32 in 10.0 mi West 9.2 mph - N/A   Clear
11:51 AM 57.9 °F - 26.1 °F 30% 30.28 in 10.0 mi West 13.8 mph 19.6 mph N/A   Clear
12:51 PM 62.1 °F - 27.0 °F 26% 30.26 in 10.0 mi NW 10.4 mph 18.4 mph N/A   Clear
1:51 PM 63.0 °F - 28.0 °F 27% 30.22 in 10.0 mi NW 6.9 mph 17.3 mph N/A   Clear
2:51 PM 64.9 °F - 28.0 °F 25% 30.19 in 10.0 mi NNE 4.6 mph - N/A   Clear
3:51 PM 66.0 °F - 26.1 °F 22% 30.17 in 10.0 mi Variable 3.5 mph - N/A   Clear
4:51 PM 66.0 °F - 27.0 °F 23% 30.16 in 10.0 mi Variable 5.8 mph - N/A   Clear
5:51 PM 64.9 °F - 28.9 °F 26% 30.15 in 10.0 mi NNE 4.6 mph - N/A   Clear
6:51 PM 61.0 °F - 28.0 °F 29% 30.16 in 10.0 mi Calm Calm - N/A   Clear
7:51 PM 57.0 °F - 30.0 °F 36% 30.17 in 10.0 mi SSE 6.9 mph - N/A   Clear
8:51 PM 53.1 °F - 32.0 °F 45% 30.15 in 10.0 mi South 8.1 mph - N/A   Clear
9:51 PM 51.1 °F - 32.0 °F 48% 30.15 in 10.0 mi SSE 8.1 mph - N/A   Clear
10:51 PM 50.0 °F - 30.9 °F 48% 30.12 in 10.0 mi WSW 3.5 mph - N/A   Clear
11:51 PM 48.0 °F - 30.0 °F 50% 30.10 in 10.0 mi Calm Calm - N/A   Clear